FW3021 Weather Reports


Display with metric or nautical units.
time (UTC)temp
F
wind
direction
speed
MPH
gust
MPH
rain 1hr
in
rain 24hr
in
rain mn
in
humidity
%
barometer
mb
20260903190516 70 0 4.0 10.0 0.00 0.00 0.00 68 1013.7
20260903185536 69 0 4.0 11.0 0.00 0.00 0.00 68 1013.9
20260903184536 69 0 4.0 14.0 0.00 0.00 0.00 68 1013.9
20260903183516 70 0 5.0 12.0 0.00 0.00 0.00 67 1013.8
20260903182516 70 0 4.0 10.0 0.00 0.00 0.00 67 1014.0
20260903181516 70 0 5.0 12.0 0.00 0.00 0.00 67 1013.9
20260903180516 69 0 6.0 13.0 0.00 0.00 0.00 67 1013.8
20260903175536 70 0 5.0 14.0 0.00 0.00 0.00 67 1014.0
20260903174516 70 0 6.0 11.0 0.00 0.00 0.00 66 1014.1
20260903173516 70 0 4.0 11.0 0.00 0.00 0.00 65 1014.2
20260903172516 70 0 4.0 13.0 0.00 0.00 0.00 66 1014.0
20260903171516 70 0 5.0 13.0 0.00 0.00 0.00 65 1014.1
20260903170516 70 0 6.0 12.0 0.00 0.00 0.00 65 1014.1
20260903165516 70 0 4.0 12.0 0.00 0.00 0.00 65 1014.4
20260903164516 70 0 4.0 16.0 0.00 0.00 0.00 67 1014.4
20260903163516 69 0 6.0 12.0 0.00 0.00 0.00 66 1014.3
20260903162516 69 0 6.0 17.0 0.00 0.00 0.00 66 1014.7
20260903161516 70 0 3.0 12.0 0.00 0.00 0.00 66 1014.8
20260903160516 69 0 5.0 16.0 0.00 0.00 0.00 66 1014.8
20260903155516 69 0 6.0 14.0 0.00 0.00 0.00 67 1014.9
20260903154536 70 0 5.0 12.0 0.00 0.00 0.00 66 1015.0
20260903153516 69 0 4.0 14.0 0.00 0.00 0.00 66 1014.8
20260903152516 69 0 4.0 9.0 0.00 0.00 0.00 67 1014.9
20260903151536 69 0 5.0 12.0 0.00 0.00 0.00 67 1015.0
20260903150516 69 0 5.0 13.0 0.00 0.00 0.00 66 1014.9
20260903145516 69 0 4.0 11.0 0.00 0.00 0.00 67 1014.8
20260903144516 70 0 3.0 7.0 0.00 0.00 0.00 67 1014.9
20260903143516 69 0 4.0 11.0 0.00 0.00 0.00 67 1014.9
20260903142516 69 0 4.0 10.0 0.00 0.00 0.00 67 1014.7
20260903141516 69 0 3.0 11.0 0.00 0.00 0.00 67 1014.7
20260903140536 69 0 4.0 12.0 0.00 0.00 0.00 66 1014.6
20260903135556 69 0 4.0 11.0 0.00 0.00 0.00 67 1014.7
20260903134516 68 0 3.0 9.0 0.00 0.00 0.00 67 1014.6
20260903133516 68 0 2.0 6.0 0.00 0.00 0.00 67 1014.5
20260903132515 68 0 2.0 9.0 0.00 0.00 0.00 67 1014.5
20260903131515 68 0 4.0 10.0 0.00 0.00 0.00 67 1014.3
20260903130515 67 0 2.0 6.0 0.00 0.00 0.00 69 1014.3
20260903125556 66 0 2.0 8.0 0.00 0.00 0.00 70 1014.2
20260903124515 65 0 2.0 5.0 0.00 0.00 0.00 72 1014.1
20260903123536 64 0 2.0 5.0 0.00 0.00 0.00 74 1014.0
20260903122516 63 0 2.0 5.0 0.00 0.00 0.00 75 1013.9
20260903121515 62 0 2.0 6.0 0.00 0.00 0.00 77 1013.8
20260903120535 62 0 2.0 5.0 0.00 0.00 0.00 77 1014.0
20260903115515 61 0 3.0 6.0 0.00 0.00 0.00 78 1013.9
20260903114515 61 0 3.0 6.0 0.00 0.00 0.00 79 1014.0
20260903113517 60 0 3.0 7.0 0.00 0.00 0.00 80 1013.8
20260903112517 60 0 3.0 7.0 0.00 0.00 0.00 81 1013.9
20260903111517 60 0 3.0 6.0 0.00 0.00 0.00 82 1013.8
20260903110517 59 0 3.0 8.0 0.00 0.00 0.00 85 1013.7
20260903105517 58 0 3.0 5.0 0.00 0.00 0.00 86 1013.6
20260903104517 57 0 3.0 4.0 0.00 0.00 0.00 86 1013.7
20260903103517 57 0 2.0 4.0 0.00 0.00 0.00 86 1013.6
20260903102557 57 0 2.0 4.0 0.00 0.00 0.00 86 1013.4
20260903101538 57 0 2.0 4.0 0.00 0.00 0.00 86 1013.2
20260903100517 57 0 3.0 4.0 0.00 0.00 0.00 86 1013.2
20260903095517 57 0 3.0 5.0 0.00 0.00 0.00 87 1013.2
20260903094517 57 0 3.0 3.0 0.00 0.00 0.00 86 1013.1
20260903093517 57 338 3.0 3.0 0.00 0.00 0.00 86 1013.1
20260903092517 57 338 3.0 4.0 0.00 0.00 0.00 86 1013.1
20260903091517 57 0 3.0 3.0 0.00 0.00 0.00 86 1013.2
20260903090517 57 0 3.0 4.0 0.00 0.00 0.00 86 1013.2
20260903085517 57 0 3.0 3.0 0.00 0.00 0.00 86 1013.2
20260903084517 57 0 2.0 3.0 0.00 0.00 0.00 86 1013.2
20260903083517 57 0 2.0 4.0 0.00 0.00 0.00 86 1013.2
20260903082517 57 0 2.0 3.0 0.00 0.00 0.00 86 1013.2
20260903081517 57 0 2.0 3.0 0.00 0.00 0.00 86 1013.2
20260903080517 57 0 3.0 4.0 0.00 0.00 0.00 86 1013.2
20260903075517 57 0 3.0 4.0 0.00 0.00 0.00 86 1013.3
20260903074517 57 0 2.0 3.0 0.00 0.00 0.00 86 1013.2
20260903073517 57 0 3.0 3.0 0.00 0.00 0.00 86 1013.2
20260903072537 58 0 3.0 5.0 0.00 0.00 0.00 86 1013.4
20260903071517 58 0 3.0 5.0 0.00 0.00 0.00 86 1013.5
20260903070517 58 338 3.0 4.0 0.00 0.00 0.00 86 1013.5
20260903065517 58 0 3.0 5.0 0.00 0.00 0.00 86 1013.4
20260903064537 58 0 3.0 4.0 0.00 0.00 0.00 86 1013.4
20260903063517 58 23 3.0 5.0 0.00 0.00 0.00 86 1013.5
20260903062517 58 0 3.0 4.0 0.00 0.00 0.00 86 1013.5
20260903061517 58 0 3.0 4.0 0.00 0.00 0.00 86 1013.6
20260903060517 58 0 3.0 5.0 0.00 0.00 0.00 86 1013.6
20260903055517 58 23 2.0 4.0 0.00 0.00 0.00 86 1013.4
20260903054517 58 23 2.0 3.0 0.00 0.00 0.00 86 1013.4
20260903053517 58 23 3.0 4.0 0.00 0.00 0.00 86 1013.5
20260903052517 58 0 2.0 5.0 0.00 0.00 0.00 86 1013.7
20260903051517 58 338 2.0 3.0 0.00 0.00 0.00 86 1013.6
20260903050517 58 338 1.0 3.0 0.00 0.00 0.00 86 1013.7
20260903045517 59 338 1.0 2.0 0.00 0.00 0.00 85 1013.8
20260903044517 59 338 1.0 3.0 0.00 0.00 0.00 86 1013.7
20260903043517 59 338 1.0 3.0 0.00 0.00 0.00 85 1013.7
20260903042517 59 338 2.0 6.0 0.00 0.00 0.00 85 1013.5
20260903041517 59 0 2.0 3.0 0.00 0.00 0.00 83 1013.1
20260903040517 59 0 2.0 3.0 0.00 0.00 0.00 83 1013.1
20260903035517 59 0 2.0 2.0 0.00 0.00 0.00 83 1013.0
20260903034517 59 0.0 2.0 0.00 0.00 0.00 83 1013.0
20260903033517 59 0.0 1.0 0.00 0.00 0.00 83 1012.9
20260903032517 60 0 2.0 3.0 0.00 0.00 0.00 83 1013.0
20260903031517 59 0 2.0 3.0 0.00 0.00 0.00 81 1013.0
20260903030517 59 293 2.0 3.0 0.00 0.00 0.00 78 1012.9
20260903025537 59 293 2.0 3.0 0.00 0.00 0.00 76 1012.9
20260903024537 60 293 2.0 3.0 0.00 0.00 0.00 75 1012.9
20260903023517 60 293 1.0 2.0 0.00 0.00 0.00 75 1012.9
20260903022516 61 0.0 2.0 0.00 0.00 0.00 75 1012.7
20260903021537 61 0.0 1.0 0.00 0.00 0.00 75 1012.8
20260903020516 61 293 1.0 2.0 0.00 0.00 0.00 76 1012.7
20260903015517 61 0.0 3.0 0.00 0.00 0.00 76 1012.6
20260903014517 61 0.0 3.0 0.00 0.00 0.00 76 1012.4
20260903013517 61 0.0 2.0 0.00 0.00 0.00 75 1013.0
20260903012536 62 0.0 0.0 0.00 0.00 0.00 73 1012.1
20260903011537 62 0.0 0.0 0.00 0.00 0.00 72 1012.2
20260903010516 63 0.0 0.0 0.00 0.00 0.00 71 1012.0
20260903005517 64 0.0 0.0 0.00 0.00 0.00 70 1012.0
20260903004517 64 0.0 0.0 0.00 0.00 0.00 70 1011.9
20260903003516 65 0.0 0.0 0.00 0.00 0.00 69 1011.8
20260903002516 66 0.0 0.0 0.00 0.00 0.00 69 1012.0
20260903001517 67 0.0 0.0 0.00 0.00 0.00 67 1012.0
20260903000516 68 0.0 0.0 0.00 0.00 0.00 66 1011.9
20260902235516 68 0.0 0.0 0.00 0.00 0.00 63 1011.8
20260902234516 69 0.0 0.0 0.00 0.00 0.00 62 1011.9
20260902233516 69 0.0 0.0 0.00 0.00 0.00 61 1011.9
20260902232516 69 0.0 0.0 0.00 0.00 0.00 60 1012.0
20260902231516 69 0.0 0.0 0.00 0.00 0.00 60 1012.0
20260902230516 70 0 2.0 5.0 0.00 0.00 0.00 58 1012.0
20260902225516 69 0 1.0 5.0 0.00 0.00 0.00 59 1011.9
20260902224516 69 0.0 0.0 0.00 0.00 0.00 60 1011.8
20260902223516 69 0.0 0.0 0.00 0.00 0.00 59 1011.8
20260902222516 69 0 3.0 4.0 0.00 0.00 0.00 58 1011.7
20260902221516 70 0 3.0 5.0 0.00 0.00 0.00 57 1011.8
20260902220516 70 0 3.0 5.0 0.00 0.00 0.00 55 1011.9
20260902215516 70 0 3.0 6.0 0.00 0.00 0.00 54 1011.8
20260902214516 70 0 3.0 6.0 0.00 0.00 0.00 56 1011.8
20260902213516 70 0 3.0 5.0 0.00 0.00 0.00 58 1011.8
20260902212516 70 0 3.0 6.0 0.00 0.00 0.00 56 1011.9
20260902211516 70 0 2.0 4.0 0.00 0.00 0.00 57 1011.8
20260902210516 71 0.0 0.0 0.00 0.00 0.00 54 1011.7
20260902205516 69 0.0 0.0 0.00 0.00 0.00 60 1011.8
20260902204516 67 0 3.0 6.0 0.00 0.00 0.00 64 1011.8
20260902203516 68 0 4.0 6.0 0.00 0.00 0.00 63 1011.8
20260902202516 68 0 3.0 5.0 0.00 0.00 0.00 62 1011.9
20260902201516 68 0 2.0 3.0 0.00 0.00 0.00 62 1011.9
20260902200516 68 0 2.0 4.0 0.00 0.00 0.00 64 1011.9
20260902195536 69 0 3.0 4.0 0.00 0.00 0.00 63 1011.9
20260902194536 67 0 3.0 5.0 0.00 0.00 0.00 64 1012.0
20260902193536 67 0 5.0 6.0 0.00 0.00 0.00 64 1012.0
20260902192516 66 0 5.0 8.0 0.00 0.00 0.00 65 1012.0
20260902191536 67 0 5.0 8.0 0.00 0.00 0.00 63 1012.1